When you browse on this site, cookies collect data to enhance your experience and personalize the content and advertising you see.
Visit our Privacy Policy to learn more. By continuing to use the site, you agree to this use of cookies and data.
  • En España
  • Lista de países
  • Para 7 días
  • Temperatura del agua
  • Mapa Satelital
  • El tiempo en el mapa
  • Informadores
  • user-avatar
    Iniciar sesión

    Tiempo cada hora Byala

    Hoy, 17 Noviembre, Sábado

    Tiempo Temperatura Precipitaciones Viento Presión Humedad
    00:00 -2°C° 0 mm 6 mps 761 mmHg 81%
    01:00 -2°C° 0 mm 6 mps 761 mmHg 81%
    02:00 -3°C° 0 mm 6 mps 761 mmHg 77%
    03:00 -3°C° 0 mm 6 mps 761 mmHg 78%
    04:00 -3°C° 0 mm 6 mps 761 mmHg 79%
    05:00 -2°C° 0 mm 5 mps 761 mmHg 80%
    06:00 -2°C° 0 mm 5 mps 761 mmHg 81%
    07:00 -2°C° 0 mm 5 mps 761 mmHg 82%
    08:00 -2°C° 0 mm 5 mps 761 mmHg 83%
    09:00 -1°C° 0 mm 5 mps 761 mmHg 81%
    10:00 -1°C° 0 mm 6 mps 761 mmHg 78%
    11:00 +1°C° 0 mm 6 mps 761 mmHg 76%
    12:00 +2°C° 0 mm 6 mps 761 mmHg 76%
    13:00 +2°C° 0 mm 7 mps 761 mmHg 76%
    14:00 +2°C° 0 mm 7 mps 761 mmHg 76%
    15:00 +2°C° 0.1 mm 7 mps 760 mmHg 78%
    16:00 +2°C° 0.1 mm 7 mps 760 mmHg 80%
    17:00 +2°C° 0.1 mm 7 mps 760 mmHg 83%
    18:00 +2°C° 0.2 mm 7 mps 760 mmHg 84%
    19:00 +2°C° 0.2 mm 7 mps 760 mmHg 85%
    20:00 +2°C° 0.2 mm 7 mps 760 mmHg 86%
    21:00 +2°C° 0.3 mm 7 mps 760 mmHg 86%
    22:00 +2°C° 0.3 mm 7 mps 760 mmHg 86%
    23:00 +2°C° 0.3 mm 6 mps 760 mmHg 87%

    Mañana, 18 Noviembre, Domingo

    Tiempo Temperatura Precipitaciones Viento Presión Humedad
    00:00 +2°C° 0.3 mm 7 mps 760 mmHg 87%
    01:00 +2°C° 0.3 mm 7 mps 760 mmHg 87%
    02:00 +2°C° 0.3 mm 7 mps 760 mmHg 87%
    03:00 +2°C° 0.2 mm 7 mps 759 mmHg 87%
    04:00 +2°C° 0.2 mm 7 mps 759 mmHg 87%
    05:00 +1°C° 0.2 mm 8 mps 759 mmHg 87%
    06:00 +1°C° 0.2 mm 8 mps 759 mmHg 87%
    07:00 +1°C° 0.2 mm 8 mps 759 mmHg 87%
    08:00 +1°C° 0.2 mm 8 mps 758 mmHg 87%
    09:00 +3°C° 0.1 mm 7 mps 758 mmHg 85%
    10:00 +4°C° 0.1 mm 7 mps 758 mmHg 82%
    11:00 +5°C° 0.1 mm 7 mps 758 mmHg 80%
    12:00 +5°C° 0 mm 7 mps 757 mmHg 79%
    13:00 +6°C° 0 mm 7 mps 757 mmHg 78%
    14:00 +6°C° 0 mm 7 mps 756 mmHg 77%
    15:00 +6°C° 0 mm 7 mps 755 mmHg 79%
    16:00 +6°C° 0 mm 7 mps 755 mmHg 81%
    17:00 +6°C° 0 mm 7 mps 754 mmHg 83%
    18:00 +6°C° 0.4 mm 8 mps 754 mmHg 84%
    19:00 +6°C° 0.4 mm 8 mps 753 mmHg 84%
    20:00 +6°C° 0.4 mm 8 mps 753 mmHg 85%
    21:00 +6°C° 0.7 mm 8 mps 752 mmHg 85%
    22:00 +6°C° 0.7 mm 9 mps 752 mmHg 86%
    23:00 +6°C° 0.7 mm 9 mps 752 mmHg 86%

    Pasado mañana, 19 Noviembre, Lunes

    Tiempo Temperatura Precipitaciones Viento Presión Humedad
    00:00 +6°C° 1.1 mm 9 mps 751 mmHg 87%
    01:00 +6°C° 1.1 mm 9 mps 750 mmHg 88%
    02:00 +6°C° 1.1 mm 9 mps 749 mmHg 90%
    03:00 +6°C° 1.7 mm 9 mps 748 mmHg 91%
    04:00 +7°C° 1.7 mm 9 mps 748 mmHg 91%
    05:00 +7°C° 1.7 mm 9 mps 747 mmHg 92%
    06:00 +8°C° 3.2 mm 7 mps 747 mmHg 92%
    07:00 +8°C° 3.2 mm 6 mps 747 mmHg 92%
    08:00 +8°C° 3.2 mm 5 mps 746 mmHg 92%
    09:00 +8°C° 0.3 mm 5 mps 747 mmHg 91%
    10:00 +9°C° 0.3 mm 5 mps 747 mmHg 90%
    11:00 +9°C° 0.3 mm 6 mps 747 mmHg 89%
    12:00 +9°C° 0 mm 6 mps 747 mmHg 87%
    13:00 +8°C° 0 mm 7 mps 747 mmHg 84%
    14:00 +7°C° 0 mm 8 mps 748 mmHg 81%
    15:00 +6°C° 0 mm 7 mps 748 mmHg 82%
    16:00 +5°C° 0 mm 7 mps 749 mmHg 84%
    17:00 +4°C° 0 mm 7 mps 750 mmHg 85%
    18:00 +4°C° 0 mm 6 mps 751 mmHg 86%
    19:00 +3°C° 0 mm 6 mps 751 mmHg 86%
    20:00 +2°C° 0 mm 6 mps 752 mmHg 87%
    21:00 +2°C° 0 mm 5 mps 753 mmHg 87%
    22:00 +2°C° 0 mm 5 mps 753 mmHg 88%
    23:00 +2°C° 0 mm 5 mps 754 mmHg 88%

    20 Noviembre, Martes

    Tiempo Temperatura Precipitaciones Viento Presión Humedad
    00:00 +1°C° 0 mm 4 mps 754 mmHg 89%
    01:00 +1°C° 0 mm 4 mps 755 mmHg 89%
    02:00 +2°C° 0 mm 3 mps 755 mmHg 90%
    03:00 +2°C° 0 mm 3 mps 755 mmHg 90%
    04:00 +2°C° 0 mm 3 mps 755 mmHg 90%
    05:00 +2°C° 0 mm 3 mps 755 mmHg 91%
    06:00 +2°C° 0 mm 3 mps 755 mmHg 90%
    07:00 +2°C° 0 mm 3 mps 755 mmHg 90%
    08:00 +3°C° 0 mm 3 mps 756 mmHg 89%
    09:00 +4°C° 0 mm 4 mps 756 mmHg 88%
    10:00 +5°C° 0 mm 4 mps 756 mmHg 86%
    11:00 +6°C° 0 mm 4 mps 755 mmHg 85%
    12:00 +7°C° 0 mm 5 mps 755 mmHg 86%
    13:00 +7°C° 0 mm 5 mps 754 mmHg 88%
    14:00 +8°C° 0 mm 5 mps 754 mmHg 89%
    15:00 +8°C° 0 mm 5 mps 754 mmHg 91%
    16:00 +9°C° 0 mm 5 mps 753 mmHg 93%
    17:00 +9°C° 0 mm 6 mps 753 mmHg 95%
    18:00 +9°C° 0.2 mm 6 mps 753 mmHg 96%
    19:00 +10°C° 0.2 mm 6 mps 753 mmHg 96%
    20:00 +10°C° 0.2 mm 6 mps 752 mmHg 96%
    21:00 +11°C° 0.3 mm 6 mps 752 mmHg 96%
    22:00 +11°C° 0.3 mm 6 mps 752 mmHg 96%
    23:00 +11°C° 0.3 mm 6 mps 751 mmHg 96%

    21 Noviembre, Miércoles

    Tiempo Temperatura Precipitaciones Viento Presión Humedad
    00:00 +12°C° 0.7 mm 5 mps 751 mmHg 96%
    01:00 +13°C° 0.7 mm 5 mps 750 mmHg 95%
    02:00 +13°C° 0.7 mm 5 mps 750 mmHg 95%
    03:00 +13°C° 0.8 mm 4 mps 749 mmHg 94%
    04:00 +13°C° 0.8 mm 4 mps 749 mmHg 94%
    05:00 +13°C° 0.8 mm 4 mps 748 mmHg 93%
    06:00 +13°C° 0.7 mm 5 mps 748 mmHg 93%
    07:00 +13°C° 0.7 mm 5 mps 748 mmHg 93%
    08:00 +13°C° 0.7 mm 5 mps 748 mmHg 93%
    09:00 +14°C° 0.5 mm 5 mps 748 mmHg 90%
    10:00 +14°C° 0.5 mm 5 mps 748 mmHg 86%
    11:00 +15°C° 0.5 mm 4 mps 749 mmHg 83%
    12:00 +15°C° 0.1 mm 4 mps 749 mmHg 79%
    13:00 +15°C° 0.1 mm 4 mps 749 mmHg 76%
    14:00 +15°C° 0.1 mm 4 mps 748 mmHg 72%
    15:00 +14°C° 0 mm 4 mps 749 mmHg 76%
    16:00 +13°C° 0 mm 4 mps 749 mmHg 79%
    17:00 +12°C° 0 mm 4 mps 749 mmHg 83%
    18:00 +12°C° 0 mm 5 mps 750 mmHg 85%
    19:00 +10°C° 0 mm 5 mps 750 mmHg 87%
    20:00 +9°C° 0 mm 5 mps 751 mmHg 89%
    21:00 +9°C° 0 mm 5 mps 751 mmHg 90%
    22:00 +9°C° 0 mm 5 mps 752 mmHg 90%
    23:00 +8°C° 0 mm 5 mps 752 mmHg 91%

    22 Noviembre, Jueves

    Tiempo Temperatura Precipitaciones Viento Presión Humedad
    00:00 +8°C° 0 mm 5 mps 752 mmHg 90%
    01:00 +8°C° 0 mm 5 mps 753 mmHg 90%
    02:00 +7°C° 0 mm 5 mps 753 mmHg 89%
    03:00 +7°C° 0 mm 5 mps 753 mmHg 89%
    04:00 +7°C° 0 mm 5 mps 754 mmHg 88%
    05:00 +6°C° 0 mm 5 mps 754 mmHg 88%
    06:00 +6°C° 0 mm 5 mps 754 mmHg 87%
    07:00 +6°C° 0 mm 5 mps 755 mmHg 86%
    08:00 +6°C° 0 mm 5 mps 755 mmHg 85%
    09:00 +6°C° 0 mm 5 mps 756 mmHg 82%
    10:00 +7°C° 0 mm 5 mps 756 mmHg 79%
    11:00 +7°C° 0 mm 5 mps 756 mmHg 76%
    12:00 +7°C° 0 mm 5 mps 756 mmHg 75%
    13:00 +7°C° 0 mm 6 mps 756 mmHg 73%
    14:00 +8°C° 0 mm 6 mps 756 mmHg 71%
    15:00 +7°C° 0 mm 6 mps 757 mmHg 73%
    16:00 +7°C° 0 mm 6 mps 757 mmHg 74%
    17:00 +5°C° 0 mm 6 mps 757 mmHg 76%
    18:00 +5°C° 0 mm 6 mps 758 mmHg 76%
    19:00 +4°C° 0 mm 6 mps 758 mmHg 77%
    20:00 +4°C° 0 mm 6 mps 758 mmHg 78%
    21:00 +4°C° 0 mm 6 mps 759 mmHg 78%
    22:00 +3°C° 0 mm 6 mps 759 mmHg 78%
    23:00 +3°C° 0 mm 6 mps 759 mmHg 79%
    Mostrar más